Погода в Веселовке

Россия / Республика Коми     61°28′16″N   51°35′05″E
темп.,
°C
ветер,
м/с
пор.,
м/с
влажн.,
%
обл.,
%
осадки,
мм/ч
давл.,
гПа
погр.,
м
6 мая, чт
чт600:00+2зсз4997100 0.2 1000525
03:000зсз5984100 0.6 1003913
06:000зсз5978100 0.0 10051019
09:00+3зсз696299 0.1 10071496
12:00+5з5954100 0.0 10091675
15:00+8з584281 0.0 10101805
18:00+8з365075 0.0 1010585
21:00+3ююз2272100 0.0 101118
7 мая, пт
пт700:00+3юв2676100 0.0 1010121
03:00+5ююв3989100 0.6 1009263
06:00+8ю4118834 0.0 1008404
09:00+13ююз4972100 0.0 1008961
12:00+14ююз51164100 0.2 10091413
15:00+13юз3771100 0.6 1009595
18:00+10з3689100 1.0 1009462
21:00+7юз3991100 1.4 1012462
8 мая, сб
сб800:00+6юз3109445 0.1 1014377
03:00+4юз311950 0.1 1016303
06:00+7юз38770 0.0 1018354
09:00+12юз36532 0.0 10181128
12:00+15юз463841 0.0 10182146
15:00+16ю35346 0.0 10172251
18:00+14ююв3843100 0.0 1016587
21:00+9юв41262100 0.0 1016265
9 мая, вс
вс900:00+9юв41362100 0.0 1015375
03:00+10юв51576100 0.0 1013529
06:00+12ююв6166897 0.0 1012854
09:00+18ююв71650100 0.0 10102003
12:00+18ю81853100 0.1 10102290
15:00+13ю71781100 1.1 10121540
18:00+10юз51185100 1.5 1014911
21:00+8юз4987100 1.8 1017840
10 мая, пн
пн1000:00+7зюз3781100 0.2 1019651
03:00+5з3784100 0.3 1021590
06:00+6з3575100 0.0 1023551
09:00+9зюз355899 0.0 10241110
12:00+13з45335 0.0 10232221
15:00+14з473063 0.0 10232663
18:00+13зюз473933 0.0 10231315
21:00+7з266678 0.0 1025117